Retour au catalogue

STARLINK-32873

ActifCommunicationsVLEO
NORAD 62857·PAYLOAD·🇺🇸 United States

Lancé Feb 1, 2025 depuis Vandenberg Space Force Base

Loading…

Prochains Passages (prochaines 24 heures)

TLE

FraisSource: CelesTrak SupGP

Époque: Sep 14, 2026, 21:20 UTC

1 62857C 25022D   26257.88937500 -.00016690  00000+0 -49322-3 0  2574
2 62857  53.1591 327.7697 0001291  78.1557 160.4007 15.34391523    16

Suivez STARLINK-32873 en temps réel avec AllMySat

Download on the App Store